Home > Weather > Schwedt/Oder > Past weeks

Flag for Germany Weather for the Past 2 Weeks in Schwedt/Oder, Brandenburg, Germany

Now
59 °F

Clear.


Feels Like: 58 °F
Forecast: 50 / 74 °F
Wind: 6 mph from East

Location: Szczecin Airport

Current Time: May 6, 2016 at 11:38:08 PM

Latest Report: May 6, 2016 at 11:00 PM


Visibility: 10 mi

Pressure: 30.09 "Hg

Humidity: 48%

Dew Point: 39 °F

Location of Schwedt/OderLocation

Historic Weather in Schwedt/Oder — Graph

°F

Schwedt/Oder Temperature Yesterday

Maximum temperature yesterday: 66 °F (at 1:30 PM)
Minimum temperature yesterday: 46 °F (at 12:00 AM)
Average temperature yesterday: 55 °F

High & Low Weather Summary for the Past Weeks

 TemperatureHumidityPressure
High72 °F (May 6, 2:30 PM)100% (Apr 24, 1:00 AM)30.36 "Hg (Apr 24, 1:00 AM)
Low28 °F (Apr 25, 12:30 AM)25% (May 1, 5:00 PM)29.47 "Hg (Apr 26, 6:30 PM)
Average48 °F66%29.98 "Hg
* Reported Apr 21 10:00 PM — May 6 10:30 PM, Schwedt/Oder, Weather by CustomWeather, © 2016

Note: Actual official high and low records may vary slightly from our data, if they occured in-between our weather recording intervals... More about our weather records

Advertising

Schwedt/Oder Weather History for the Previous 24 Hours

Scroll right to see more
 ConditionsComfort  
Time TempWeatherWind HumidityBarometerVisibility
10:30 PM
Fri, May 6
61 °FClear.8 mph42%30.09 "Hg10 mi
10:00 PM63 °FClear.9 mph39%30.09 "Hg10 mi
9:30 PM63 °FSunny.8 mph39%30.09 "Hg10 mi
9:00 PM64 °FSunny.9 mph40%30.09 "Hg10 mi
8:30 PM66 °FSunny.2 mph43%30.09 "Hg10 mi
8:00 PM70 °FSunny.5 mph33%30.07 "Hg10 mi
7:30 PM70 °FPassing clouds.3 mph35%30.07 "HgN/A
7:00 PM72 °FPassing clouds.6 mph31%30.09 "HgN/A
6:30 PM72 °FPassing clouds.7 mph33%30.09 "HgN/A
6:00 PM72 °FPassing clouds.6 mph31%30.09 "HgN/A
5:30 PM72 °FPassing clouds.6 mph31%30.09 "HgN/A
5:00 PM72 °FPassing clouds.10 mph31%30.09 "HgN/A
4:30 PM72 °FSunny.8 mph31%30.12 "Hg10 mi
4:00 PM72 °FSunny.14 mph31%30.12 "Hg10 mi
3:30 PM72 °FPassing clouds.12 mph31%30.12 "HgN/A
3:00 PM72 °FPassing clouds.8 mph33%30.15 "HgN/A
2:30 PM72 °FPassing clouds.13 mph33%30.15 "HgN/A
2:00 PM70 °FSunny.12 mph35%30.15 "Hg10 mi
1:30 PM70 °FPassing clouds.8 mph38%30.15 "HgN/A
1:00 PM70 °FPassing clouds.9 mph38%30.18 "HgN/A
12:30 PM68 °FPassing clouds.9 mph40%30.18 "HgN/A
12:00 PM68 °FPassing clouds.10 mph40%30.18 "HgN/A
11:30 AM68 °FPassing clouds.7 mph43%30.21 "HgN/A
11:00 AM66 °FPassing clouds.5 mph43%30.21 "HgN/A
10:30 AM63 °FPassing clouds.5 mph49%30.21 "HgN/A
10:00 AM61 °FSunny.7 mph52%30.21 "Hg10 mi
9:30 AM59 °FPassing clouds.7 mph55%30.21 "HgN/A
9:00 AM59 °FSunny.8 mph55%30.21 "Hg10 mi
8:30 AM57 °FSunny.7 mph55%30.21 "Hg10 mi
8:00 AM55 °FSunny.7 mph59%30.21 "Hg10 mi
7:30 AM54 °FPassing clouds.3 mph58%30.21 "HgN/A
7:00 AM48 °FSunny.3 mph71%30.21 "Hg10 mi
6:30 AM45 °FSunny.3 mph81%30.21 "Hg10 mi
6:00 AM41 °FClear.1 mph87%30.21 "Hg10 mi
5:30 AM39 °FClear.1 mph93%30.21 "Hg10 mi
5:00 AM41 °FClear.1 mph87%30.21 "Hg10 mi
4:30 AM41 °FClear.1 mph87%30.24 "Hg10 mi
4:00 AM43 °FClear.2 mph81%30.24 "Hg10 mi
3:30 AM46 °FClear.2 mph76%30.24 "Hg10 mi
3:00 AM46 °FClear.3 mph76%30.24 "Hg10 mi
2:30 AM48 °FClear.5 mph71%30.24 "Hg10 mi
2:00 AM48 °FClear.7 mph71%30.24 "Hg10 mi
1:30 AM48 °FClear.8 mph71%30.24 "Hg10 mi
1:00 AM50 °FClear.10 mph67%30.27 "Hg10 mi
12:30 AM50 °FClear.9 mph67%30.27 "Hg10 mi
12:00 AM50 °FClear.9 mph67%30.27 "Hg10 mi
11:30 PM
Thu, May 5
50 °FClear.8 mph67%30.27 "Hg10 mi
11:00 PM52 °FClear.7 mph62%30.27 "Hg10 mi
Weather by CustomWeather, © 2016

See weather overviewHow to use our weather pages